Location: Helsinki
(60.1699°N, 24.9384°E)
Time: 23:59:13
(UTC+02:00)

Transit 4A - Pass Details

Date: 30 October 2020
Orbit: 862 x 982 km, 66.8° (Epoch: 25 November)

Event Time Altitude Azimuth Distance (km) Brightness Sun altitude
Rises 23:00:31 0° 311° (NW) 3,697 11.7 -42.5°
Reaches altitude 10° 23:03:08 10° 308° (NW) 2,748 10.8 -42.7°
Enters shadow 23:04:59 20° 304° (WNW) 2,105 10.1 -42.7°
